PAGEOS 1 DEB, 2256

Orbit data source: Space-Track

PAGEOS 1 DEB, 2256 is space debris in LEO originally from a launch on Fri, 24 Jun 1966 UTC launched from the Air Force Western Test Range (AFWTR). Debris objects in space refer to the collection of defunct objects orbiting the Earth. Examples of debris include non-operational satellites, rocket bodies, and fragments generated from explosions, collisions, or faulty payload assembly.

Loading next visibility...
PAGEOS 1 DEB details
Identifier
2256, 1966-056C
Orbit
LEO
Last TLE update17 hours ago
Origin
Flag of USNASA LaRC (US)
ManufacturerGoodyear
MissionSpacecraft
Bus & MotorECHO CANISTER, Unknown motor
Mass9 kg wet, 9 kg dry
Launch date (UTC)
1966-06-24 (58 years ago)
Launch vehicleUnknown
Launch site
Air Force Western Test Range (AFWTR)
Object type
Payload
Rocket body
Debris
Shape & HBRHalf Sphere, Unknown HBR
Radar Cross Section0.377 m², Large (>1 m²)

Expand to show TLE details & history

TLE from 17 hours ago
0 PAGEOS 1 DEB
1 02256U 66056C   24356.50715887 -.00000021  00000-0 -22263-1 0  9990
2 02256  86.9232 207.5569 0025678 234.6147 125.2260  7.93565279695423
Epoch: 2024-12-21T12:10Z
Definitive object data (Epoch: 2024-12-21T12:10:18.526Z)
Latitude0.00005°
Longitude-65.57762°
Altitude4,256.981 km
Speed6.118 km/s
True Right ascension13h 50m 13s
True Declination0° 00' 00"
Sunlit
Object was in daylight at TLE epoch
Visualization TLE readout
Latitude-47.48913°
Longitude117.70768°
Altitude4,230.097 km
Speed6.138 km/s
Apparent Right ascension23h 18m 43s
Apparent Declination-70° 55' 43"
Sunlit
Object is in daylight
Visualization observer readout
Local Sidereal Time04:17:10
Azimuth201.98° SSW
Elevation-32.68°
Doppler factor1
Orbital elements
Apogee altitude4,264.355 km
Perigee altitude4,209.839 km
Semi-major axis10,615.234 km
Eccentricity0.0025678
Inclination86.9232°
RAAN207.5569°
Arg. of periapsis234.6147°
True anomaly125.46592°
Mean anomaly125.226°
Eccentric anomaly125.34601°
Mean motion1.98449 °/min
BSTAR-0.022263
Orbital period181.41 mins
Loading maneuver chart data...

PAGEOS 1 DEB Visibility forecast

Observer location: undefined°, undefined

Span
Click to sort rows by Start time (UTC) header in descending order
Start Az.
Max El. time (UTC)
Max El. Az.
Max El.
End time (UTC)
End Az.
35 mins2024-12-22 12:27:37.461Z124.235° SE2024-12-22 12:45:37.461Z65.17° ENE30.891°2024-12-22 13:02:37.461Z10.764° NNE
42 mins2024-12-22 15:23:37.461Z195.268° SSW2024-12-22 15:44:37.461Z279.939° WNW42.538°2024-12-22 16:05:37.461Z0.299° NNE
18 mins2024-12-22 18:47:37.461Z295.105° NW2024-12-22 18:55:37.461Z318.692° NNW13.456°2024-12-22 19:05:37.461Z347.821° N
17 mins2024-12-22 22:19:37.461Z17.204° NNE2024-12-22 22:27:37.461Z40.75° NE13.128°2024-12-22 22:36:37.461Z67.1° ENE
42 mins2024-12-23 01:18:37.461Z0.609° NNE2024-12-23 01:38:37.461Z78.39° E42.331°2024-12-23 02:00:37.461Z164.781° S
34 mins2024-12-23 04:21:37.461Z348.014° N2024-12-23 04:38:37.461Z290.831° WNW31.144°2024-12-23 04:55:37.461Z235.334° WSW
|